[[{"header":{"parameterUnit":"m.s-1","parameterCategory":2,"la1":30.2991,"la2":30.254,"lo1":-89.0895,"lo2":-89.0444,"dy":0.0017,"dx":0.0017,"nx":28,"ny":28,"refTime":"2023-07-29T21:00:00:Z","depth":"0","parameterNumber":2,"parameterNumberName":"U-component_of_CURRENTS"},"data":[0,0,0,0,0,0,0,0,0,0,0,0,0,0,0,0,0,0,0,0,0,0,0,0,0,0,0,0,0,0,0,0,0,0,0,0,0,0,0,0,0,0,0,0,0,0,0,0,0,0,0,0,0,0,0,0,0,0,0.425,0.425,0,0.4255,0.4255,0.4256,0.4247,0.4246,0.4246,0.4245,0.426,0.4261,0.4262,0,0,0,0,0,0,0,0,0,0,0,0,0,0.4229,0.423,0.425,0.425,0.425,0.4255,0.4255,0.4256,0.4247,0.4246,0.4246,0.4245,0.426,0.4261,0.4262,0,0,0,0,0,0,0,0,0,0,0,0,0,0.424,0.423,0.425,0.4244,0.4243,0.4255,0.4255,0.4256,0.4247,0.4246,0.4246,0.4245,0.4259,0.4261,0.4262,0.4287,0,0,0.4266,0.4267,0,0,0,0,0,0,0,0,0.4239,0.4241,0.4245,0.4245,0.4244,0.4247,0.4253,0.4266,0.4247,0.4249,0.4245,0.4244,0.4255,0.4257,0.4264,0.4288,0.4288,0.4266,0.4267,0.4268,0.4268,0,0,0,0,0,0,0,0.4238,0.424,0.4255,0.4245,0.4244,0.4239,0.424,0.4256,0.4259,0.4249,0.4247,0.4243,0.4255,0.4262,0.4264,0.4289,0.4266,0.4267,0.4268,0.4269,0.4445,0.4449,0,0,0,0,0,0,0.4233,0.424,0.4255,0.4255,0.4236,0.424,0.4241,0.4249,0.4259,0.4258,0.4244,0.4243,0.426,0.4262,0.4264,0.4365,0.4268,0.4269,0.427,0.4441,0.4446,0.445,0,0,0,0,0,0,0.4233,0.4235,0.4255,0.4244,0.4246,0.4241,0.425,0.425,0.4254,0.4255,0.4255,0.4248,0.426,0.4262,0.4333,0.4362,0.427,0.4271,0.4437,0.4443,0.4448,0.452,0,0,0,0,0,0,0.4233,0.4235,0.4238,0.4245,0.4246,0.4273,0.4251,0.425,0.4251,0.425,0.4258,0.4259,0.4259,0.4332,0.4334,0.4362,0.4272,0.4432,0.4439,0.4446,0.4513,0.4528,0.454,0,0,0,0,0,0.4232,0.4247,0.4239,0.424,0.4252,0.4273,0.4275,0.4269,0.4252,0.4268,0.4306,0.4258,0.4379,0.4337,0.4339,0.4367,0.4428,0.4437,0.4445,0.4507,0.4525,0.454,0,0,0,0,0,0,0.4237,0.4247,0.4238,0.4254,0.4264,0.4271,0.4288,0.4272,0.431,0.4319,0.4311,0.4318,0.44,0.4384,0.4337,0.4447,0.4394,0.4403,0.444,0.4456,0.447,0.4477,0.4273,0,0,0,0,0,0.4239,0.4255,0.426,0.4272,0.4287,0.4285,0.429,0.4289,0.4318,0.4331,0.4341,0.4376,0.4438,0.4446,0.4498,0.4541,0.4537,0.4565,0.4578,0.459,0.4604,0.4666,0.4686,0.4478,0.4478,0.4478,0,0,0.4242,0.4249,0.4256,0.4274,0.4289,0.4323,0.4289,0.4314,0.4361,0.433,0.4409,0.4434,0.4472,0.4551,0.458,0.4532,0.4644,0.4601,0.4609,0.4618,0.4677,0.4697,0.4714,0.4484,0.4483,0.4482,0,0,0.4265,0.4273,0.4298,0.4321,0.4344,0.4352,0.4358,0.4379,0.4416,0.4494,0.4502,0.4548,0.4616,0.4646,0.4673,0.479,0.4737,0.4796,0.4838,0.4899,0.4916,0.493,0.4925,0.4939,0.4774,0.4774,0.4775,0,0.4265,0.4295,0.4308,0.4348,0.4363,0.4368,0.44,0.446,0.4501,0.4547,0.4541,0.4657,0.4672,0.4761,0.4811,0.4815,0.4825,0.4761,0.4913,0.4928,0.4942,0.4933,0.4947,0.4779,0.4778,0.4778,0.4778,0,0.431,0.434,0.4368,0.4417,0.4438,0.4474,0.4538,0.4594,0.4629,0.467,0.4781,0.4813,0.4864,0.4878,0.4886,0.498,0.4947,0.494,0.4858,0.4966,0.4951,0.4964,0.4785,0.4784,0.4782,0.4781,0,0,0.4281,0.4377,0.4383,0.4414,0.4475,0.4495,0.4611,0.4696,0.4778,0.4838,0.4925,0.5021,0.5006,0.5038,0.5023,0.506,0.5152,0.504,0.5041,0.5011,0.5251,0.4977,0.4963,0.5175,0.5178,0.5181,0.519,0,0.4304,0.4379,0.4417,0.4486,0.4527,0.4585,0.4677,0.4765,0.4867,0.4972,0.5024,0.5116,0.5081,0.5096,0.5138,0.5171,0.5196,0.5148,0.5173,0.5173,0.4896,0.4974,0.4721,0.4687,0.5202,0.5204,0.5206,0,0.4312,0.4366,0.4427,0.4518,0.454,0.4582,0.4708,0.4798,0.4971,0.5055,0.5143,0.5204,0.5275,0.5235,0.5315,0.5288,0.5286,0.5288,0.5288,0.5017,0.4923,0.4673,0.4691,0.463,0.5225,0.5224,0.5222,0,0.4251,0.436,0.4399,0.4433,0.4546,0.4592,0.4648,0.4807,0.4893,0.5102,0.5168,0.5291,0.5317,0.5383,0.5374,0.5379,0.5435,0.5437,0.5177,0.5156,0.4935,0.4886,0.4873,0.5505,0.5505,0.5505,0.5505,0,0.4237,0.4273,0.438,0.4407,0.4478,0.4547,0.4644,0.4767,0.4897,0.4977,0.5171,0.5229,0.5366,0.5407,0.5419,0.5299,0.5465,0.5192,0.5151,0.4946,0.4901,0.4829,0.4826,0.5505,0.5505,0.5505,0.5505,0,0.4168,0.423,0.4305,0.4423,0.4451,0.4502,0.4602,0.4678,0.4819,0.4925,0.4981,0.5186,0.5226,0.5291,0.537,0.5285,0.5093,0.5168,0.4872,0.4792,0.4441,0.4449,0.4223,0.4118,0.4898,0.4891,0.4885,0,0.4142,0.4168,0.4302,0.434,0.4393,0.4465,0.4503,0.4631,0.4689,0.4863,0.4884,0.4993,0.5012,0.4995,0.4903,0.4829,0.4815,0.4549,0.45,0.4375,0.4362,0.4271,0.4198,0.4251,0.4241,0.4233,0.4226,0,0.4115,0.4163,0.4237,0.4293,0.434,0.4381,0.443,0.4442,0.4559,0.4614,0.4629,0.4659,0.4636,0.4443,0.4355,0.4305,0.4319,0.4362,0.4363,0.3941,0.3721,0.3613,0.427,0.4151,0.4158,0.4164,0.4168,0.4171,0.4094,0.4138,0.4201,0.4229,0.4269,0.4217,0.4154,0.4187,0.4161,0.4107,0.4274,0.4171,0.4111,0.3924,0.3853,0.3603,0.3703,0.3509,0.3558,0.3499,0.3296,0.3717,0.346,0.3463,0.3466,0.3469,0.3471,0,0.4011,0.4041,0.4105,0.4092,0.4019,0.4074,0.4024,0.3886,0.3728,0.3745,0.3666,0.3516,0.3316,0.3282,0.3063,0.29,0.2839,0.2837,0.2758,0.2754,0.3246,0.3116,0.2613,0.2613,0.2614,0.2614,0.2614,0.2614,0.3972,0.3947,0.3951,0.3788,0.3754,0.3536,0.3433,0.3285,0.3217,0.2977,0.2847,0.2859,0.296,0.2803,0.2605,0.2529,0.2461,0.2203,0.2343,0.2808,0.288,0.2948,0.2829,0.2274,0.2274,0.1721,0.1717,0.1714]},{"header":{"parameterUnit":"m.s-1","parameterCategory":2,"la1":30.2991,"la2":30.254,"lo1":-89.0895,"lo2":-89.0444,"dy":0.0017,"dx":0.0017,"nx":28,"ny":28,"refTime":"2023-07-29T21:00:00:Z","depth":"0","parameterNumber":3,"parameterNumberName":"V-component_of_CURRENTS"},"data":[0,0,0,0,0,0,0,0,0,0,0,0,0,0,0,0,0,0,0,0,0,0,0,0,0,0,0,0,0,0,0,0,0,0,0,0,0,0,0,0,0,0,0,0,0,0,0,0,0,0,0,0,0,0,0,0,0,0,0.05,0.05,0,0.0467,0.0466,0.0466,0.0428,0.0428,0.0427,0.0427,0.0391,0.039,0.0389,0,0,0,0,0,0,0,0,0,0,0,0,0,0.047,0.047,0.05,0.05,0.05,0.0467,0.0466,0.0465,0.0428,0.0428,0.0427,0.0427,0.0391,0.039,0.0389,0,0,0,0,0,0,0,0,0,0,0,0,0,0.0461,0.0471,0.05,0.0479,0.0477,0.0467,0.0466,0.0465,0.0428,0.0428,0.0427,0.0427,0.0391,0.039,0.0389,0.039,0,0,0.0386,0.0385,0,0,0,0,0,0,0,0,0.0462,0.0462,0.0483,0.0481,0.0479,0.0454,0.0442,0.0441,0.0428,0.0443,0.0427,0.0427,0.0414,0.0411,0.0401,0.0389,0.0387,0.0386,0.0385,0.0384,0.0384,0,0,0,0,0,0,0,0.0463,0.0463,0.0484,0.0483,0.048,0.0451,0.045,0.0441,0.0429,0.0442,0.044,0.0442,0.0412,0.0402,0.04,0.0387,0.0386,0.0385,0.0384,0.0383,0.0441,0.0443,0,0,0,0,0,0,0.0477,0.0464,0.0485,0.0483,0.0473,0.0452,0.0451,0.046,0.0429,0.0425,0.0442,0.044,0.0404,0.0401,0.0399,0.0451,0.0384,0.0383,0.0383,0.0439,0.0442,0.0444,0,0,0,0,0,0,0.0477,0.048,0.0486,0.0475,0.0474,0.0454,0.0464,0.0459,0.0455,0.0429,0.0424,0.0444,0.0404,0.04,0.0418,0.0448,0.0383,0.0382,0.0436,0.044,0.0443,0.0523,0,0,0,0,0,0,0.0476,0.048,0.0489,0.0476,0.0475,0.0494,0.0465,0.0459,0.0458,0.0455,0.043,0.0425,0.0403,0.042,0.0417,0.0445,0.0381,0.0434,0.0438,0.0442,0.0518,0.0529,0.0538,0,0,0,0,0,0.0475,0.0495,0.049,0.0492,0.049,0.0496,0.0492,0.0474,0.0459,0.0466,0.046,0.0426,0.0444,0.0421,0.0417,0.0445,0.0432,0.0437,0.0442,0.0513,0.0526,0.0538,0,0,0,0,0,0,0.0482,0.0493,0.0487,0.0507,0.0508,0.0491,0.0498,0.0482,0.048,0.0481,0.045,0.0447,0.0476,0.0455,0.043,0.0477,0.0434,0.0438,0.049,0.0502,0.0512,0.0544,0.038,0,0,0,0,0,0.0491,0.0511,0.051,0.0526,0.0533,0.0516,0.0515,0.0505,0.0502,0.0499,0.0484,0.048,0.0492,0.0492,0.0494,0.0514,0.0492,0.0533,0.0543,0.0552,0.0578,0.0597,0.0611,0.046,0.046,0.046,0,0,0.0495,0.0506,0.0515,0.053,0.0529,0.0553,0.0515,0.0526,0.0549,0.0498,0.0526,0.0515,0.0508,0.0538,0.0548,0.0522,0.0574,0.0558,0.0565,0.0587,0.0604,0.0618,0.0631,0.0464,0.0463,0.0462,0,0,0.0527,0.0531,0.0562,0.0573,0.0586,0.0581,0.059,0.0585,0.0588,0.0611,0.0592,0.061,0.0605,0.0617,0.0621,0.0691,0.0632,0.0681,0.0752,0.077,0.0783,0.0793,0.074,0.0745,0.0682,0.0682,0.0682,0,0.053,0.0576,0.057,0.0608,0.0628,0.0602,0.0643,0.0645,0.0645,0.0675,0.0636,0.0679,0.0653,0.072,0.0734,0.0715,0.0689,0.0701,0.0783,0.0794,0.0803,0.0746,0.0751,0.0686,0.0686,0.0686,0.0685,0,0.0592,0.0627,0.065,0.0694,0.0711,0.0741,0.0751,0.077,0.0765,0.0778,0.0837,0.081,0.0845,0.0828,0.0794,0.0861,0.0804,0.0794,0.0748,0.0823,0.0757,0.0761,0.0693,0.0691,0.069,0.0689,0,0,0.0604,0.0679,0.0688,0.0734,0.0763,0.0791,0.0838,0.0893,0.0962,0.0944,0.1036,0.1022,0.1014,0.102,0.0983,0.0979,0.0986,0.0912,0.0911,0.0852,0.0973,0.0903,0.0898,0.0987,0.099,0.0992,0.0881,0,0.0656,0.0752,0.0771,0.0859,0.0911,0.0919,0.0977,0.1022,0.1058,0.1138,0.1127,0.1194,0.1088,0.1115,0.1096,0.1043,0.1008,0.1014,0.0917,0.0913,0.0838,0.0907,0.0879,0.0779,0.0885,0.0885,0.0886,0,0.0715,0.0776,0.0873,0.0974,0.0999,0.1044,0.1157,0.1207,0.1302,0.1339,0.1392,0.1393,0.1406,0.1306,0.1225,0.1231,0.1108,0.1033,0.1027,0.0947,0.0853,0.0732,0.0781,0.0704,0.0891,0.089,0.089,0,0.075,0.0851,0.0938,0.0968,0.1068,0.1122,0.1175,0.1274,0.1366,0.1484,0.1571,0.1577,0.1603,0.1485,0.1311,0.1277,0.1202,0.114,0.0948,0.0937,0.0892,0.0875,0.0859,0.1077,0.1077,0.1077,0.1077,0,0.0808,0.088,0.0965,0.1019,0.1144,0.1182,0.1337,0.1399,0.1532,0.1676,0.168,0.178,0.1653,0.1593,0.1393,0.1189,0.1262,0.0979,0.0931,0.0912,0.0899,0.0811,0.0736,0.1073,0.1074,0.1075,0.1075,0,0.0847,0.0896,0.1014,0.1129,0.1169,0.1264,0.1433,0.156,0.1655,0.1844,0.1892,0.1951,0.1865,0.169,0.1507,0.1305,0.1033,0.1009,0.0958,0.0908,0.0643,0.0573,0.0457,0.042,0.0783,0.0781,0.0779,0,0.0885,0.0946,0.1095,0.1185,0.1244,0.1383,0.1498,0.1615,0.1756,0.1941,0.2042,0.2039,0.204,0.1742,0.1412,0.1072,0.096,0.0823,0.0763,0.065,0.0537,0.0488,0.0464,0.0699,0.0697,0.0695,0.0694,0,0.097,0.1017,0.1121,0.1286,0.1417,0.1573,0.1731,0.1851,0.2001,0.2136,0.2269,0.2279,0.2012,0.1699,0.127,0.1026,0.0761,0.0772,0.0705,0.0522,0.0423,0.0358,0.0698,0.0678,0.0679,0.0681,0.0681,0.0682,0.1041,0.1127,0.1254,0.1408,0.1561,0.1731,0.1852,0.202,0.2201,0.2359,0.2363,0.2349,0.1961,0.1374,0.1091,0.06,0.059,0.0432,0.0361,0.0328,0.0297,0.0569,0.0476,0.0477,0.0477,0.0477,0.0478,0,0.112,0.1214,0.1371,0.1552,0.1705,0.1769,0.199,0.21,0.2278,0.2381,0.2429,0.2186,0.169,0.1239,0.0566,0.0259,0.0182,0.012,0.0078,0.0078,0.0367,0.0374,0.0199,0.02,0.02,0.02,0.02,0.02,0.1173,0.1309,0.1375,0.1617,0.1747,0.1921,0.203,0.2191,0.2294,0.2359,0.2308,0.2253,0.1934,0.0815,0.0133,-0.0017,-0.0136,-0.0236,-0.0264,-0.0042,-0.0016,0.0009,0.0005,-0.0244,-0.0245,-0.0495,-0.0498,-0.0501]}],[{"header":{"parameterUnit":"m.s-1","parameterCategory":2,"la1":30.2991,"la2":30.254,"lo1":-89.0895,"lo2":-89.0444,"dy":0.0017,"dx":0.0017,"nx":28,"ny":28,"refTime":"2023-07-29T21:00:00:Z","depth":"2","parameterNumber":2,"parameterNumberName":"U-component_of_CURRENTS"},"data":[0,0,0,0,0,0,0,0,0,0,0,0,0,0,0,0,0,0,0,0,0,0,0,0,0,0,0,0,0,0,0,0,0,0,0,0,0,0,0,0,0,0,0,0,0,0,0,0,0,0,0,0,0,0,0,0,0,0,0.3241,0.3241,0,0.3254,0.3254,0.3255,0.3222,0.3221,0.322,0.3219,0.3288,0.3291,0.3293,0,0,0,0,0,0,0,0,0,0,0,0,0,0.3193,0.3194,0.3241,0.3241,0.3241,0.3254,0.3254,0.3255,0.3222,0.3221,0.322,0.3219,0.3287,0.329,0.3294,0,0,0,0,0,0,0,0,0,0,0,0,0,0.3211,0.3195,0.3241,0.3227,0.3226,0.3254,0.3254,0.3255,0.3223,0.3221,0.322,0.3218,0.3286,0.329,0.3294,0.335,0,0,0.3307,0.3309,0,0,0,0,0,0,0,0,0.321,0.3213,0.3229,0.3228,0.3227,0.3235,0.3263,0.3289,0.3223,0.3224,0.3219,0.3218,0.3277,0.3281,0.3286,0.3353,0.3356,0.3307,0.331,0.3311,0.3313,0,0,0,0,0,0,0,0.3209,0.3212,0.3246,0.3229,0.3228,0.3222,0.3223,0.3267,0.326,0.3224,0.3221,0.3224,0.3276,0.3282,0.3288,0.3357,0.3307,0.3311,0.3313,0.3315,0.3466,0.3467,0,0,0,0,0,0,0.3209,0.3211,0.3246,0.3246,0.3215,0.3224,0.3225,0.3234,0.3258,0.3259,0.3225,0.3222,0.3276,0.3283,0.329,0.3405,0.3311,0.3315,0.3318,0.3464,0.3466,0.3468,0,0,0,0,0,0,0.3208,0.3212,0.3245,0.3228,0.3232,0.3226,0.3237,0.3235,0.325,0.3258,0.326,0.3242,0.3275,0.3284,0.3307,0.3405,0.3317,0.3321,0.3463,0.3465,0.3467,0.3605,0,0,0,0,0,0,0.3207,0.3212,0.3229,0.3229,0.3233,0.3274,0.3238,0.3236,0.3253,0.3249,0.3274,0.3278,0.3275,0.33,0.3311,0.341,0.3324,0.3461,0.3464,0.3466,0.3598,0.3612,0.3623,0,0,0,0,0,0.3205,0.3223,0.323,0.3235,0.3253,0.3275,0.3278,0.3267,0.3255,0.3273,0.3261,0.3278,0.3327,0.3304,0.3316,0.3419,0.3459,0.3463,0.3466,0.3593,0.3609,0.3623,0,0,0,0,0,0,0.3219,0.3222,0.3229,0.325,0.3271,0.327,0.3289,0.3284,0.3291,0.3286,0.3285,0.3289,0.3337,0.3349,0.3323,0.3464,0.3403,0.3409,0.3496,0.3511,0.3523,0.35,0.3328,0,0,0,0,0,0.3232,0.324,0.3255,0.3278,0.3294,0.33,0.3311,0.3305,0.3306,0.3308,0.3329,0.3346,0.3365,0.3408,0.3411,0.3507,0.3493,0.358,0.3592,0.3603,0.3588,0.3659,0.3678,0.3479,0.3479,0.3479,0,0,0.3234,0.3248,0.3247,0.3281,0.3299,0.3314,0.3303,0.3327,0.3362,0.3319,0.3382,0.3374,0.3382,0.3456,0.3489,0.3488,0.3648,0.3607,0.3617,0.3596,0.3665,0.3684,0.3702,0.3481,0.3481,0.3481,0,0,0.3248,0.3274,0.3285,0.33,0.3332,0.3341,0.3353,0.3377,0.342,0.3491,0.3436,0.3469,0.3562,0.3557,0.3575,0.3662,0.3677,0.3697,0.3795,0.3866,0.3884,0.3899,0.3895,0.3909,0.3747,0.3748,0.3748,0,0.3252,0.3277,0.3296,0.3314,0.333,0.3354,0.3374,0.3426,0.3456,0.3502,0.3535,0.3603,0.3614,0.3661,0.3691,0.3698,0.3712,0.3749,0.3886,0.39,0.3914,0.3906,0.3919,0.3755,0.3754,0.3753,0.3752,0,0.3268,0.329,0.3307,0.3333,0.3358,0.3383,0.3442,0.3476,0.3558,0.3628,0.3729,0.3751,0.3799,0.3829,0.3805,0.3896,0.3863,0.3864,0.3856,0.3943,0.3927,0.3939,0.3765,0.3762,0.376,0.3758,0,0,0.3244,0.3306,0.3301,0.3325,0.3371,0.3386,0.3451,0.3534,0.36,0.372,0.3844,0.3898,0.3944,0.3956,0.3944,0.4015,0.4123,0.4005,0.4006,0.401,0.4245,0.402,0.401,0.4178,0.4181,0.4184,0.4193,0,0.3251,0.3272,0.3318,0.3348,0.3363,0.3404,0.3473,0.3546,0.368,0.3812,0.3911,0.4019,0.3999,0.4044,0.4121,0.4091,0.4162,0.4116,0.4148,0.4146,0.3948,0.4019,0.3736,0.3704,0.4204,0.4205,0.4207,0,0.324,0.3253,0.3288,0.3354,0.3374,0.3424,0.3511,0.3583,0.3752,0.3855,0.3989,0.4098,0.4179,0.4196,0.4254,0.4236,0.4256,0.4253,0.4255,0.3998,0.3943,0.3699,0.3706,0.4225,0.4224,0.4222,0.4221,0,0.3181,0.3232,0.3268,0.3281,0.336,0.3418,0.3479,0.3612,0.371,0.3894,0.4015,0.4142,0.4225,0.4292,0.4313,0.4315,0.4379,0.4386,0.4192,0.4175,0.3905,0.3857,0.4463,0.4463,0.4463,0.4463,0.4463,0,0.3163,0.318,0.3257,0.3271,0.3352,0.3409,0.3541,0.3603,0.3759,0.3868,0.4062,0.4143,0.4269,0.435,0.4359,0.4279,0.4426,0.419,0.4172,0.3938,0.3895,0.4321,0.4305,0.4463,0.4463,0.4463,0.4463,0,0.3104,0.3154,0.3192,0.3282,0.3344,0.3396,0.3573,0.3636,0.378,0.3923,0.399,0.4167,0.4195,0.4295,0.4343,0.4285,0.4257,0.4203,0.387,0.381,0.3994,0.3985,0.3986,0.3979,0.3972,0.3967,0.3962,0,0.309,0.31,0.3191,0.3228,0.3307,0.3407,0.3474,0.3625,0.3682,0.3885,0.393,0.4066,0.4071,0.4061,0.398,0.3931,0.4089,0.3621,0.3557,0.3967,0.3951,0.3952,0.3951,0.3264,0.3254,0.3246,0.324,0,0.3052,0.3086,0.3103,0.3157,0.3256,0.3316,0.343,0.3477,0.3602,0.3703,0.3732,0.3773,0.3784,0.3554,0.3507,0.3451,0.3599,0.3445,0.4016,0.3402,0.328,0.3266,0.3291,0.3168,0.3175,0.318,0.3184,0.3187,0.3031,0.3,0.3011,0.3073,0.3145,0.3154,0.3152,0.3212,0.3245,0.3296,0.342,0.3353,0.3348,0.3081,0.2955,0.2869,0.3117,0.2996,0.3025,0.3062,0.295,0.2821,0.2599,0.2603,0.2606,0.2609,0.2611,0,0.2926,0.2908,0.2923,0.2953,0.2929,0.3022,0.3044,0.2956,0.288,0.2965,0.2953,0.2675,0.2511,0.253,0.2276,0.2224,0.2268,0.2135,0.2196,0.2267,0.2331,0.2187,0.1631,0.1627,0.1625,0.1622,0,0,0.2883,0.2808,0.278,0.2717,0.2728,0.2632,0.2582,0.2477,0.2459,0.234,0.2291,0.2457,0.2479,0.2054,0.1968,0.1757,0.2016,0.1686,0.2478,0.2627,0.2688,0.2829,0.2685,0,0,0,0,0]},{"header":{"parameterUnit":"m.s-1","parameterCategory":2,"la1":30.2991,"la2":30.254,"lo1":-89.0895,"lo2":-89.0444,"dy":0.0017,"dx":0.0017,"nx":28,"ny":28,"refTime":"2023-07-29T21:00:00:Z","depth":"2","parameterNumber":3,"parameterNumberName":"V-component_of_CURRENTS"},"data":[0,0,0,0,0,0,0,0,0,0,0,0,0,0,0,0,0,0,0,0,0,0,0,0,0,0,0,0,0,0,0,0,0,0,0,0,0,0,0,0,0,0,0,0,0,0,0,0,0,0,0,0,0,0,0,0,0,0,0.0236,0.0236,0,0.0203,0.0202,0.0202,0.016,0.016,0.0159,0.0159,0.0126,0.0126,0.0125,0,0,0,0,0,0,0,0,0,0,0,0,0,0.0214,0.0215,0.0236,0.0236,0.0236,0.0203,0.0202,0.0202,0.016,0.016,0.0159,0.0159,0.0126,0.0126,0.0125,0,0,0,0,0,0,0,0,0,0,0,0,0,0.0203,0.0215,0.0236,0.0214,0.0212,0.0203,0.0202,0.0201,0.016,0.016,0.0159,0.0159,0.0127,0.0126,0.0125,0.0129,0,0,0.0122,0.0122,0,0,0,0,0,0,0,0,0.0204,0.0203,0.0217,0.0216,0.0213,0.0189,0.0183,0.0178,0.016,0.0176,0.0159,0.0159,0.015,0.0147,0.0136,0.0127,0.0126,0.0122,0.0121,0.0121,0.0121,0,0,0,0,0,0,0,0.0205,0.0204,0.0219,0.0217,0.0215,0.0189,0.0187,0.0181,0.0163,0.0174,0.0172,0.0175,0.0148,0.0137,0.0135,0.0125,0.0122,0.0121,0.0121,0.012,0.0142,0.0143,0,0,0,0,0,0,0.022,0.0206,0.022,0.0218,0.0212,0.0191,0.0188,0.0194,0.0163,0.0159,0.0175,0.0173,0.0139,0.0136,0.0134,0.0171,0.0121,0.012,0.012,0.0141,0.0142,0.0143,0,0,0,0,0,0,0.0219,0.0221,0.0221,0.0214,0.0213,0.0192,0.0199,0.0194,0.0189,0.0164,0.0159,0.0177,0.0139,0.0135,0.0132,0.0168,0.012,0.0119,0.014,0.0141,0.0143,0.0223,0,0,0,0,0,0,0.0219,0.0222,0.023,0.0215,0.0214,0.0228,0.0199,0.0193,0.0193,0.019,0.0164,0.016,0.0138,0.0133,0.0131,0.0166,0.0118,0.0138,0.014,0.0142,0.0219,0.0227,0.0234,0,0,0,0,0,0.0218,0.0234,0.0231,0.0233,0.0227,0.023,0.0227,0.0207,0.0194,0.0199,0.0176,0.0161,0.0145,0.0133,0.013,0.0166,0.0137,0.014,0.0142,0.0215,0.0225,0.0234,0,0,0,0,0,0,0.0228,0.0231,0.0227,0.0243,0.0243,0.0224,0.023,0.0216,0.0202,0.0199,0.0168,0.0163,0.0168,0.0157,0.0145,0.0178,0.0142,0.0144,0.0199,0.0208,0.0216,0.0236,0.0118,0,0,0,0,0,0.0237,0.025,0.0247,0.0262,0.0266,0.025,0.0249,0.0238,0.0225,0.0218,0.02,0.0186,0.0176,0.0184,0.0164,0.019,0.0163,0.0212,0.022,0.0227,0.0242,0.0229,0.0237,0.0152,0.0152,0.0152,0,0,0.0242,0.025,0.0254,0.0265,0.0263,0.028,0.0247,0.0255,0.0265,0.0218,0.0225,0.0202,0.0182,0.0198,0.0203,0.0198,0.0234,0.023,0.0236,0.0247,0.0232,0.0241,0.0248,0.0153,0.0153,0.0153,0,0,0.027,0.0271,0.0294,0.03,0.031,0.0305,0.0313,0.0304,0.0295,0.0302,0.0266,0.0271,0.026,0.0258,0.0255,0.0299,0.026,0.0295,0.0372,0.0359,0.0366,0.0372,0.0336,0.0338,0.0319,0.0319,0.0319,0,0.0275,0.031,0.03,0.0328,0.0346,0.0324,0.0357,0.0343,0.0332,0.0343,0.0318,0.032,0.0294,0.033,0.0337,0.0319,0.0292,0.0339,0.037,0.0375,0.038,0.0341,0.0342,0.0323,0.0322,0.0322,0.0322,0,0.0325,0.035,0.0367,0.0399,0.0413,0.0438,0.0431,0.0432,0.0425,0.0426,0.0449,0.0418,0.0437,0.0423,0.039,0.0426,0.0387,0.0364,0.0348,0.0393,0.0349,0.0349,0.0329,0.0327,0.0326,0.0325,0,0,0.0344,0.0393,0.0399,0.0437,0.0457,0.0481,0.0494,0.0521,0.0557,0.054,0.0602,0.0568,0.0571,0.0567,0.0538,0.0524,0.0516,0.0467,0.0464,0.0433,0.0469,0.0414,0.0407,0.0496,0.0497,0.0498,0.042,0,0.0389,0.046,0.0473,0.0545,0.0584,0.0578,0.0608,0.0625,0.0633,0.0681,0.0664,0.0703,0.0623,0.0651,0.0625,0.054,0.0522,0.0538,0.0428,0.0425,0.0372,0.0408,0.0428,0.0358,0.042,0.042,0.042,0,0.0442,0.0485,0.0565,0.0641,0.0661,0.0704,0.077,0.0793,0.0831,0.0836,0.0869,0.0864,0.0858,0.0789,0.0679,0.069,0.0594,0.0516,0.0511,0.0436,0.037,0.0325,0.0355,0.0419,0.0419,0.0419,0.0419,0,0.0483,0.0555,0.063,0.0652,0.0725,0.0769,0.0813,0.0856,0.0913,0.0955,0.1022,0.0992,0.1011,0.0888,0.0727,0.0707,0.0592,0.0549,0.0408,0.0401,0.0386,0.0377,0.0483,0.0483,0.0483,0.0483,0.0484,0,0.054,0.0599,0.0661,0.0708,0.0815,0.0841,0.0966,0.0979,0.1066,0.1166,0.1132,0.119,0.1035,0.0962,0.0785,0.0594,0.0637,0.0427,0.0388,0.0411,0.0406,0.0436,0.0431,0.048,0.0481,0.0482,0.0482,0,0.0582,0.062,0.0713,0.0803,0.0845,0.0925,0.1077,0.1166,0.1212,0.1344,0.1377,0.1351,0.1221,0.1055,0.0844,0.068,0.0493,0.0416,0.044,0.0404,0.0292,0.0293,0.0255,0.0252,0.025,0.0249,0.0247,0,0.0618,0.0668,0.0784,0.0862,0.0918,0.1043,0.1145,0.1226,0.1323,0.1428,0.1501,0.1448,0.1392,0.1069,0.0784,0.0494,0.0461,0.031,0.0277,0.0308,0.0274,0.0277,0.0281,0.0279,0.0278,0.0277,0.0276,0,0.0686,0.0722,0.0798,0.0941,0.1067,0.1204,0.1348,0.1444,0.1542,0.1627,0.1672,0.164,0.1376,0.1074,0.0705,0.0502,0.0354,0.028,0.0335,0.033,0.0324,0.0292,0.0296,0.0269,0.0269,0.027,0.027,0.0271,0.0739,0.0792,0.089,0.1033,0.1174,0.1333,0.1446,0.1573,0.1703,0.181,0.1765,0.1695,0.1416,0.0918,0.0604,0.0286,0.0301,0.0166,0.0172,0.0178,0.0192,0.0183,0.0102,0.0101,0.0101,0.0101,0.0101,0,0.0793,0.086,0.0985,0.115,0.1298,0.1367,0.1561,0.1645,0.1762,0.184,0.1847,0.1544,0.1238,0.0918,0.0452,0.0165,0.0163,0.0056,0.0126,0.0135,0.0143,0.0158,0.0056,0.0055,0.0054,0.0054,0,0,0.0828,0.0931,0.0982,0.1213,0.1339,0.1517,0.1616,0.1711,0.1784,0.1809,0.177,0.1715,0.1328,0.0978,0.0606,0.0334,0.0297,0.0271,0.0336,0.0473,0.0484,0.0233,0.0268,0,0,0,0,0]}],[{"header":{"parameterUnit":"m.s-1","parameterCategory":2,"la1":30.2991,"la2":30.254,"lo1":-89.0895,"lo2":-89.0444,"dy":0.0017,"dx":0.0017,"nx":28,"ny":28,"refTime":"2023-07-29T21:00:00:Z","depth":"4","parameterNumber":2,"parameterNumberName":"U-component_of_CURRENTS"},"data":[0,0,0,0,0,0,0,0,0,0,0,0,0,0,0,0,0,0,0,0,0,0,0,0,0,0,0,0,0,0,0,0,0,0,0,0,0,0,0,0,0,0,0,0,0,0,0,0,0,0,0,0,0,0,0,0,0,0,0.1703,0.1704,0,0.1737,0.1737,0.1737,0.1759,0.176,0.1761,0.1762,0.1834,0.1835,0.1836,0,0,0,0,0,0,0,0,0,0,0,0,0,0.1663,0.1663,0.1703,0.1704,0.1705,0.1737,0.1737,0.1737,0.1759,0.176,0.1761,0.1762,0.1833,0.1835,0.1836,0,0,0,0,0,0,0,0,0,0,0,0,0,0.168,0.1663,0.1703,0.1726,0.1729,0.1737,0.1737,0.1737,0.1759,0.176,0.1762,0.1763,0.1833,0.1834,0.1836,0.1821,0,0,0.1841,0.1842,0,0,0,0,0,0,0,0,0.1679,0.168,0.1722,0.1725,0.1728,0.1752,0.1749,0.1769,0.1759,0.174,0.1762,0.1763,0.1814,0.1817,0.1809,0.1825,0.1828,0.1841,0.1842,0.1843,0.1844,0,0,0,0,0,0,0,0.1678,0.1679,0.1709,0.1723,0.1727,0.1737,0.174,0.1752,0.1764,0.1742,0.1745,0.176,0.1815,0.1808,0.1812,0.1829,0.1841,0.1843,0.1844,0.1845,0.1927,0.1928,0,0,0,0,0,0,0.1687,0.1678,0.1708,0.1711,0.1714,0.1737,0.174,0.1737,0.1763,0.1771,0.1759,0.1761,0.1804,0.181,0.1814,0.1899,0.1843,0.1845,0.1846,0.1926,0.1927,0.1928,0,0,0,0,0,0,0.1685,0.1688,0.1707,0.1702,0.1706,0.1737,0.1733,0.1737,0.1773,0.1778,0.1784,0.1798,0.1805,0.1812,0.1847,0.1898,0.1845,0.1847,0.1924,0.1926,0.1928,0.2004,0,0,0,0,0,0,0.1683,0.1687,0.1705,0.1702,0.1707,0.1735,0.1733,0.1737,0.1782,0.1786,0.1812,0.1817,0.1807,0.1844,0.1848,0.19,0.1848,0.1923,0.1925,0.1927,0.2,0.2008,0.2015,0,0,0,0,0,0.1681,0.1687,0.1705,0.171,0.1725,0.1736,0.1739,0.176,0.1783,0.1797,0.1812,0.1819,0.1862,0.1846,0.1851,0.1904,0.1922,0.1924,0.1927,0.1997,0.2006,0.2015,0,0,0,0,0,0,0.1686,0.1691,0.171,0.1721,0.1745,0.1744,0.1767,0.1786,0.1807,0.1828,0.1826,0.1831,0.1882,0.1877,0.186,0.1932,0.1896,0.19,0.1948,0.1957,0.1964,0.1984,0.185,0,0,0,0,0,0.1696,0.1703,0.1717,0.1737,0.1747,0.1768,0.1786,0.1806,0.1821,0.1834,0.1854,0.1875,0.1888,0.1911,0.1918,0.1958,0.1967,0.1996,0.2004,0.201,0.2029,0.2093,0.2109,0.1937,0.1937,0.1937,0,0,0.1703,0.1715,0.1719,0.174,0.1758,0.1768,0.1781,0.1821,0.1836,0.1839,0.1879,0.1905,0.1902,0.1941,0.1965,0.1951,0.2058,0.2014,0.2019,0.2035,0.2098,0.2115,0.213,0.1939,0.1938,0.1938,0,0,0.1709,0.1735,0.1736,0.1758,0.1803,0.1806,0.183,0.1858,0.1879,0.191,0.1925,0.1994,0.1994,0.203,0.2035,0.2094,0.2092,0.2093,0.2157,0.222,0.2235,0.2249,0.2258,0.2272,0.2102,0.2102,0.2102,0,0.1729,0.1727,0.1744,0.1759,0.1787,0.1826,0.1843,0.1856,0.19,0.1929,0.1932,0.2016,0.2038,0.2104,0.2127,0.2119,0.2124,0.2124,0.2233,0.2246,0.2259,0.2265,0.228,0.2106,0.2106,0.2105,0.2105,0,0.1722,0.1742,0.1752,0.1773,0.1803,0.1833,0.1857,0.1901,0.1938,0.196,0.205,0.2094,0.2157,0.2177,0.2167,0.2279,0.2241,0.2232,0.2214,0.2282,0.2282,0.2296,0.2112,0.211,0.2109,0.2108,0,0,0.1708,0.1737,0.1748,0.1767,0.1822,0.1839,0.188,0.1922,0.1972,0.2031,0.2103,0.2175,0.2247,0.2262,0.2302,0.2367,0.2467,0.2345,0.2346,0.236,0.2566,0.2366,0.2361,0.2475,0.2478,0.2481,0.2521,0,0.1706,0.172,0.1748,0.1783,0.1789,0.1856,0.1895,0.1954,0.2,0.2075,0.2161,0.2238,0.2259,0.2331,0.2403,0.2464,0.251,0.2455,0.2492,0.2492,0.2315,0.2374,0.2492,0.2531,0.2534,0.2536,0.2538,0,0.1688,0.17,0.1727,0.1791,0.1808,0.1851,0.195,0.2002,0.2103,0.2153,0.2263,0.2308,0.2452,0.2444,0.2594,0.2554,0.257,0.2594,0.2596,0.2398,0.232,0.2454,0.2562,0.256,0.2559,0.2557,0.2555,0,0.1647,0.1691,0.1715,0.1737,0.181,0.1869,0.1938,0.2042,0.211,0.2235,0.2299,0.2429,0.2542,0.2599,0.2655,0.2639,0.2768,0.2748,0.257,0.2555,0.269,0.2675,0.2826,0.2826,0.2826,0.2825,0.2825,0,0.1615,0.1636,0.1708,0.1721,0.1781,0.1874,0.1977,0.2052,0.2203,0.2284,0.2374,0.2452,0.2592,0.2659,0.2679,0.2663,0.2794,0.2591,0.2564,0.2713,0.2701,0.2697,0.2682,0.2827,0.2827,0.2826,0.2826,0,0.1553,0.1598,0.1627,0.1721,0.1758,0.1821,0.199,0.2064,0.2221,0.2336,0.2387,0.2525,0.2604,0.2665,0.2765,0.2691,0.2691,0.2636,0.2769,0.2748,0.2424,0.2412,0.2454,0.2448,0.2442,0.2438,0.2434,0,0.1505,0.1519,0.1615,0.1636,0.1685,0.1794,0.1872,0.2054,0.214,0.2348,0.2392,0.2512,0.2565,0.2545,0.2625,0.2609,0.2574,0.2541,0.2504,0.2422,0.2393,0.239,0.2386,0.2425,0.2424,0.2422,0.2421,0,0.1413,0.148,0.151,0.1566,0.1637,0.1701,0.1835,0.1888,0.2104,0.2254,0.2327,0.2339,0.2406,0.2442,0.2431,0.2421,0.2555,0.2484,0.2495,0.246,0.2388,0.2363,0.2366,0.2402,0.2405,0.2407,0.2408,0,0.1367,0.1367,0.1436,0.1474,0.1558,0.1592,0.1664,0.1773,0.1891,0.2132,0.215,0.226,0.24,0.2343,0.2343,0.2305,0.2273,0.2197,0.2222,0.2244,0.2151,0.2026,0.1918,0,0,0,0,0,0.1309,0.1301,0.1325,0.1364,0.1452,0.1498,0.1635,0.1724,0.1929,0.1933,0.2045,0.2082,0.2085,0.2149,0.2064,0.2221,0.2263,0.211,0.2185,0.2297,0.2319,0.2226,0,0,0,0,0,0,0.127,0.1292,0.1288,0.1281,0.1296,0.1376,0.1455,0.1571,0.1597,0.1798,0.1817,0.1955,0.1991,0.2114,0.2028,0.204,0.2041,0.2192,0.2186,0.2285,0.2305,0.2322,0.2234,0,0,0,0,0]},{"header":{"parameterUnit":"m.s-1","parameterCategory":2,"la1":30.2991,"la2":30.254,"lo1":-89.0895,"lo2":-89.0444,"dy":0.0017,"dx":0.0017,"nx":28,"ny":28,"refTime":"2023-07-29T21:00:00:Z","depth":"4","parameterNumber":3,"parameterNumberName":"V-component_of_CURRENTS"},"data":[0,0,0,0,0,0,0,0,0,0,0,0,0,0,0,0,0,0,0,0,0,0,0,0,0,0,0,0,0,0,0,0,0,0,0,0,0,0,0,0,0,0,0,0,0,0,0,0,0,0,0,0,0,0,0,0,0,0,0.0118,0.0118,0,0.0094,0.0094,0.0093,0.0079,0.0079,0.0079,0.0079,0.0057,0.0056,0.0055,0,0,0,0,0,0,0,0,0,0,0,0,0,0.0108,0.0108,0.0118,0.0118,0.0118,0.0094,0.0094,0.0093,0.0079,0.0079,0.0079,0.0079,0.0057,0.0056,0.0055,0,0,0,0,0,0,0,0,0,0,0,0,0,0.0098,0.0108,0.0118,0.011,0.0109,0.0095,0.0094,0.0093,0.0079,0.0079,0.0079,0.0079,0.0057,0.0056,0.0055,0.0041,0,0,0.0051,0.0051,0,0,0,0,0,0,0,0,0.0099,0.0098,0.0111,0.0111,0.011,0.0092,0.0082,0.0077,0.0078,0.0087,0.0079,0.008,0.007,0.0068,0.0059,0.004,0.0039,0.0051,0.005,0.005,0.0049,0,0,0,0,0,0,0,0.0099,0.0099,0.0105,0.0111,0.011,0.0093,0.0092,0.008,0.0075,0.0086,0.0086,0.0088,0.007,0.006,0.0058,0.0039,0.0051,0.005,0.0049,0.0049,0.0025,0.0025,0,0,0,0,0,0,0.011,0.01,0.0106,0.0105,0.0108,0.0094,0.0092,0.0095,0.0075,0.0073,0.0088,0.0088,0.0062,0.0059,0.0057,0.007,0.005,0.0049,0.0048,0.0025,0.0025,0.0025,0,0,0,0,0,0,0.011,0.0111,0.0107,0.0104,0.0103,0.0094,0.0097,0.0095,0.0093,0.0077,0.0074,0.009,0.0062,0.0059,0.0057,0.0068,0.0048,0.0047,0.0024,0.0025,0.0025,0.0076,0,0,0,0,0,0,0.011,0.0111,0.0117,0.0105,0.0104,0.0111,0.0097,0.0094,0.0095,0.0094,0.0077,0.0075,0.0062,0.0059,0.0056,0.0066,0.0046,0.0024,0.0024,0.0025,0.0074,0.0077,0.008,0,0,0,0,0,0.011,0.0121,0.0117,0.0118,0.0112,0.0112,0.0109,0.0101,0.0095,0.0099,0.0087,0.0076,0.0057,0.0058,0.0054,0.0064,0.0024,0.0024,0.0025,0.0072,0.0077,0.008,0,0,0,0,0,0,0.012,0.012,0.0116,0.0127,0.0125,0.0111,0.0116,0.0106,0.0098,0.0099,0.0079,0.0076,0.0076,0.0061,0.0062,0.0056,0.0038,0.0037,0.0075,0.0079,0.0083,0.0096,0.0045,0,0,0,0,0,0.0125,0.0134,0.0129,0.0138,0.014,0.0128,0.0126,0.0121,0.0112,0.0109,0.0097,0.0082,0.0071,0.007,0.0056,0.0055,0.0027,0.0057,0.0061,0.0064,0.0071,0.0028,0.0028,0.0025,0.0025,0.0025,0,0,0.013,0.0134,0.0137,0.0141,0.0138,0.015,0.0127,0.0132,0.0135,0.0108,0.011,0.0094,0.0072,0.0072,0.007,0.0064,0.0049,0.0064,0.0067,0.0072,0.0028,0.0029,0.0029,0.0025,0.0025,0.0025,0,0,0.0151,0.0151,0.0166,0.0169,0.0173,0.0169,0.0174,0.0164,0.0154,0.0152,0.0133,0.0129,0.0108,0.0101,0.0092,0.0105,0.0066,0.0095,0.0128,0.0086,0.0086,0.0086,0.0052,0.0048,0.01,0.01,0.01,0,0.0157,0.0179,0.017,0.0189,0.0201,0.0182,0.0206,0.0189,0.0178,0.0172,0.0161,0.0139,0.0124,0.0126,0.0129,0.0115,0.0081,0.0117,0.0091,0.009,0.0089,0.0054,0.005,0.0102,0.0102,0.0102,0.0102,0,0.0191,0.0209,0.0221,0.0241,0.0251,0.0267,0.0255,0.0254,0.0241,0.022,0.0213,0.019,0.0182,0.0172,0.0155,0.0145,0.0119,0.0099,0.0084,0.0093,0.0055,0.0049,0.0106,0.0105,0.0104,0.0104,0,0,0.0206,0.0238,0.0245,0.0269,0.0283,0.0298,0.0304,0.0305,0.0309,0.0282,0.0284,0.0263,0.0245,0.0235,0.0214,0.018,0.0144,0.0139,0.0135,0.0111,0.0049,0.0059,0.0053,0.011,0.0109,0.0109,0.0027,0,0.0238,0.0288,0.0296,0.0347,0.0374,0.0369,0.0384,0.0378,0.0354,0.0344,0.0306,0.03,0.0268,0.0272,0.0233,0.0167,0.013,0.0168,0.004,0.0036,0.0048,0.0048,0.0106,0.0023,0.0021,0.002,0.0019,0,0.0273,0.0305,0.0363,0.0412,0.0425,0.0455,0.0484,0.049,0.0458,0.0438,0.0414,0.037,0.0339,0.0302,0.0198,0.0218,0.0141,0.0082,0.0077,0.0066,0.0036,0.001,0.0008,0.0009,0.001,0.0011,0.0011,0,0.0303,0.0355,0.0409,0.0425,0.0471,0.0504,0.0532,0.0524,0.0538,0.0501,0.0498,0.0434,0.0421,0.031,0.0191,0.0187,0.0056,0.0035,-0.0028,-0.0029,-0.0036,-0.0035,-0.0049,-0.0049,-0.0049,-0.0049,-0.0048,0,0.034,0.0382,0.0432,0.0465,0.0532,0.0554,0.0615,0.0614,0.0627,0.0645,0.056,0.0555,0.0418,0.0323,0.02,0.0074,0.0062,-0.002,-0.0048,-0.0013,-0.0008,-0.0041,-0.0038,-0.0052,-0.0051,-0.005,-0.005,0,0.0362,0.0394,0.046,0.0527,0.0551,0.0605,0.0688,0.0723,0.0722,0.0744,0.0741,0.0652,0.0535,0.0381,0.0207,0.011,-0.0029,-0.0076,-0.002,-0.0045,-0.009,-0.0084,-0.0148,-0.0148,-0.0148,-0.0148,-0.0148,0,0.0379,0.0416,0.0503,0.0551,0.059,0.0671,0.0727,0.0769,0.0807,0.0802,0.0814,0.0716,0.0635,0.0402,0.0232,0.0002,-0.0033,-0.011,-0.0104,-0.0078,-0.01,-0.0094,-0.0088,-0.0149,-0.0149,-0.0149,-0.0149,0,0.0405,0.044,0.0489,0.0587,0.0665,0.0747,0.0832,0.0868,0.091,0.091,0.0879,0.0751,0.062,0.0426,0.0248,0.0079,-0.0063,-0.0113,-0.0114,-0.0109,-0.0081,-0.0101,-0.0095,-0.015,-0.015,-0.015,-0.015,0,0.042,0.0454,0.0525,0.0612,0.0711,0.0799,0.0842,0.0901,0.0943,0.0943,0.0934,0.0779,0.0704,0.0465,0.0296,0.0137,0.0097,0.0036,0.0026,0.0025,0.0097,0.0158,0.0142,0,0,0,0,0,0.043,0.0469,0.0547,0.0644,0.0748,0.0808,0.09,0.0936,0.0976,0.0969,0.096,0.0837,0.0604,0.0496,0.0343,0.0274,0.0053,0.0085,-0.0027,-0.0155,-0.0154,-0.0099,0,0,0,0,0,0,0.0436,0.05,0.0535,0.066,0.0734,0.0846,0.0908,0.0933,0.0935,0.0948,0.0831,0.0791,0.0564,0.0696,0.0338,0.0289,0.0195,-0.0016,-0.002,-0.0155,-0.0154,-0.0154,-0.0097,0,0,0,0,0]}]]